JBU2448 MDSD-KFLL

Flight info

Callsign JBU2448
Flight time 2h 7m
Altitude 38000
Route MALVN2L MALVN DCT RUMFO DCT ZQA OLAHS3
Aircraft A320/M-SDE3FGHIRWY/LB1

Departure

Time 2026-05-05 13:49
Airport Las Américas International Airport (MDSD)

Arrival

Time 2026-05-05 15:57
Airport Fort Lauderdale Hollywood International Airport (KFLL)
Time Latitude Longitude Altitude Speed Heading
2026-05-05 13:17 18.43245 -69.67653 95 ft 0 kts 217°
2026-05-05 13:38 18.43252 -69.67647 60 ft 4 kts 217°
2026-05-05 13:38 18.43274 -69.67630 60 ft 4 kts 217°
2026-05-05 13:38 18.43296 -69.67613 64 ft 4 kts 217°
2026-05-05 13:38 18.43317 -69.67595 63 ft 4 kts 217°
2026-05-05 13:39 18.43339 -69.67578 57 ft 4 kts 217°
2026-05-05 13:39 18.43347 -69.67572 58 ft 1 kts 217°
2026-05-05 13:39 18.43347 -69.67571 58 ft 0 kts 217°
2026-05-05 13:43 18.43346 -69.67572 58 ft 0 kts 217°
2026-05-05 13:43 18.43333 -69.67570 57 ft 4 kts 155°
2026-05-05 13:43 18.43290 -69.67522 58 ft 12 kts 144°
2026-05-05 13:43 18.43203 -69.67492 64 ft 14 kts 160°
2026-05-05 13:44 18.43102 -69.67454 64 ft 17 kts 161°
2026-05-05 13:44 18.43007 -69.67406 62 ft 15 kts 138°
2026-05-05 13:44 18.42964 -69.67316 60 ft 15 kts 96°
2026-05-05 13:44 18.42955 -69.67196 57 ft 17 kts 95°
2026-05-05 13:45 18.42936 -69.67091 65 ft 12 kts 128°
2026-05-05 13:45 18.42858 -69.67050 70 ft 14 kts 161°
2026-05-05 13:45 18.42749 -69.67010 66 ft 21 kts 160°
2026-05-05 13:45 18.42654 -69.66975 65 ft 23 kts 160°
2026-05-05 13:46 18.42496 -69.66916 67 ft 25 kts 160°
2026-05-05 13:46 18.42268 -69.66832 63 ft 27 kts 161°
2026-05-05 13:46 18.42146 -69.66788 65 ft 28 kts 161°
2026-05-05 13:46 18.41957 -69.66718 63 ft 29 kts 161°
2026-05-05 13:47 18.41783 -69.66655 67 ft 20 kts 160°
2026-05-05 13:47 18.41652 -69.66608 67 ft 17 kts 161°
2026-05-05 13:47 18.41575 -69.66560 64 ft 13 kts 125°
2026-05-05 13:47 18.41537 -69.66470 65 ft 14 kts 104°
2026-05-05 13:48 18.41560 -69.66385 68 ft 9 kts 49°
2026-05-05 13:48 18.41603 -69.66388 68 ft 0 kts 339°
2026-05-05 13:48 18.41697 -69.66423 69 ft 44 kts 341°
2026-05-05 13:49 18.42199 -69.66607 67 ft 106 kts 340°
2026-05-05 13:49 18.43052 -69.66917 66 ft 151 kts 341°
2026-05-05 13:49 18.44146 -69.67320 307 ft 168 kts 342°
2026-05-05 13:49 18.45222 -69.67710 930 ft 165 kts 344°
2026-05-05 13:50 18.46331 -69.68119 1357 ft 175 kts 343°
2026-05-05 13:50 18.47545 -69.68566 1644 ft 194 kts 343°
2026-05-05 13:50 18.48881 -69.69056 1956 ft 212 kts 343°
2026-05-05 13:50 18.50347 -69.69594 2240 ft 234 kts 342°
2026-05-05 13:51 18.51973 -69.70191 2489 ft 262 kts 342°
2026-05-05 13:51 18.53741 -69.70840 2713 ft 272 kts 341°
2026-05-05 13:51 18.55511 -69.71494 2934 ft 275 kts 342°
2026-05-05 13:51 18.57348 -69.72172 3156 ft 277 kts 341°
2026-05-05 13:52 18.59040 -69.73158 3729 ft 282 kts 320°
2026-05-05 13:52 18.60452 -69.74599 4614 ft 284 kts 316°
2026-05-05 13:52 18.61857 -69.76075 5449 ft 287 kts 315°
2026-05-05 13:52 18.63280 -69.77578 6241 ft 291 kts 315°
2026-05-05 13:53 18.64700 -69.79084 6980 ft 295 kts 315°
2026-05-05 13:53 18.66084 -69.80553 7665 ft 298 kts 315°
2026-05-05 13:53 18.67567 -69.82129 8431 ft 301 kts 314°
2026-05-05 13:53 18.69048 -69.83705 9162 ft 304 kts 314°
2026-05-05 13:54 18.70551 -69.85300 9877 ft 308 kts 314°
2026-05-05 13:54 18.72080 -69.86928 10308 ft 321 kts 314°
2026-05-05 13:54 18.73708 -69.88663 10446 ft 344 kts 314°
2026-05-05 13:54 18.75435 -69.90500 10703 ft 359 kts 314°
2026-05-05 13:55 18.77202 -69.92380 11236 ft 363 kts 314°
2026-05-05 13:55 18.78993 -69.94286 11796 ft 367 kts 314°
2026-05-05 13:55 18.80797 -69.96205 12436 ft 368 kts 313°
2026-05-05 13:55 18.82606 -69.98131 13025 ft 370 kts 314°
2026-05-05 13:56 18.84418 -70.00063 13666 ft 371 kts 313°
2026-05-05 13:56 18.86234 -70.02000 14232 ft 372 kts 313°
2026-05-05 13:56 18.88057 -70.03946 14783 ft 373 kts 313°
2026-05-05 13:56 18.89885 -70.05897 15316 ft 374 kts 312°
2026-05-05 13:57 18.91719 -70.07855 15879 ft 375 kts 313°
2026-05-05 13:57 18.93556 -70.09816 16402 ft 377 kts 313°
2026-05-05 13:57 18.95383 -70.11762 16908 ft 379 kts 313°
2026-05-05 13:57 18.97241 -70.13742 17410 ft 381 kts 313°
2026-05-05 13:58 18.99110 -70.15735 17935 ft 383 kts 313°
2026-05-05 13:58 19.00993 -70.17742 18451 ft 385 kts 312°
2026-05-05 13:58 19.02882 -70.19757 18914 ft 387 kts 313°
2026-05-05 13:58 19.04779 -70.21784 19363 ft 389 kts 312°
2026-05-05 13:59 19.08592 -70.25868 20251 ft 393 kts 312°
2026-05-05 13:59 19.10513 -70.27932 20688 ft 395 kts 312°
2026-05-05 14:00 19.14395 -70.32092 21542 ft 399 kts 313°
2026-05-05 14:00 19.16350 -70.34185 21958 ft 401 kts 313°
2026-05-05 14:00 19.18319 -70.36293 22352 ft 404 kts 313°
2026-05-05 14:00 19.20296 -70.38410 22744 ft 406 kts 313°
2026-05-05 14:01 19.22285 -70.40546 23132 ft 408 kts 313°
2026-05-05 14:01 19.24284 -70.42692 23507 ft 411 kts 313°
2026-05-05 14:01 19.26298 -70.44854 23831 ft 413 kts 313°
2026-05-05 14:01 19.28319 -70.47023 24152 ft 415 kts 313°
2026-05-05 14:02 19.30351 -70.49206 24480 ft 416 kts 313°
2026-05-05 14:02 19.32389 -70.51395 24816 ft 418 kts 313°
2026-05-05 14:02 19.34430 -70.53588 25141 ft 419 kts 313°
2026-05-05 14:02 19.36478 -70.55789 25483 ft 420 kts 312°
2026-05-05 14:03 19.38529 -70.57996 25825 ft 421 kts 312°
2026-05-05 14:03 19.40613 -70.60183 26157 ft 423 kts 316°
2026-05-05 14:03 19.42949 -70.62105 26474 ft 426 kts 321°
2026-05-05 14:03 19.45347 -70.63963 26787 ft 428 kts 321°
2026-05-05 14:04 19.47755 -70.65826 27085 ft 430 kts 321°
2026-05-05 14:04 19.50177 -70.67701 27395 ft 431 kts 321°
2026-05-05 14:04 19.52602 -70.69580 27711 ft 433 kts 321°
2026-05-05 14:04 19.55038 -70.71470 28032 ft 435 kts 321°
2026-05-05 14:05 19.57483 -70.73372 28349 ft 437 kts 320°
2026-05-05 14:05 19.59907 -70.75260 28634 ft 439 kts 320°
2026-05-05 14:05 19.62404 -70.77207 28945 ft 440 kts 320°
2026-05-05 14:05 19.64842 -70.79106 29259 ft 442 kts 320°
2026-05-05 14:06 19.67326 -70.81038 29615 ft 442 kts 320°
2026-05-05 14:06 19.69803 -70.82964 30065 ft 440 kts 320°
2026-05-05 14:06 19.72267 -70.84883 30443 ft 439 kts 320°
2026-05-05 14:06 19.74726 -70.86802 30821 ft 438 kts 320°
2026-05-05 14:07 19.77175 -70.88709 31241 ft 436 kts 320°
2026-05-05 14:07 19.79616 -70.90610 31682 ft 433 kts 320°
2026-05-05 14:07 19.82039 -70.92499 32104 ft 431 kts 320°
2026-05-05 14:07 19.84460 -70.94385 32525 ft 430 kts 320°
2026-05-05 14:08 19.86863 -70.96262 32937 ft 428 kts 320°
2026-05-05 14:08 19.89251 -70.98132 33357 ft 426 kts 320°
2026-05-05 14:08 19.91636 -71.00000 33781 ft 425 kts 320°
2026-05-05 14:08 19.94009 -71.01860 34175 ft 423 kts 320°
2026-05-05 14:09 19.96375 -71.03710 34510 ft 422 kts 319°
2026-05-05 14:09 19.98738 -71.05555 34819 ft 421 kts 319°
2026-05-05 14:09 20.01100 -71.07402 35102 ft 421 kts 319°
2026-05-05 14:09 20.03453 -71.09245 35389 ft 421 kts 319°
2026-05-05 14:10 20.05807 -71.11088 35657 ft 420 kts 319°
2026-05-05 14:10 20.08164 -71.12934 35926 ft 420 kts 319°
2026-05-05 14:10 20.10482 -71.14749 36206 ft 420 kts 318°
2026-05-05 14:10 20.12830 -71.16589 36474 ft 419 kts 318°
2026-05-05 14:11 20.15176 -71.18432 36737 ft 419 kts 318°
2026-05-05 14:11 20.17517 -71.20274 36992 ft 418 kts 317°
2026-05-05 14:11 20.19860 -71.22116 37240 ft 418 kts 317°
2026-05-05 14:11 20.22199 -71.23954 37487 ft 418 kts 317°
2026-05-05 14:12 20.24536 -71.25788 37714 ft 417 kts 317°
2026-05-05 14:12 20.26874 -71.27625 37958 ft 417 kts 317°
2026-05-05 14:12 20.29211 -71.29463 38059 ft 418 kts 317°
2026-05-05 14:12 20.31555 -71.31308 38074 ft 419 kts 317°
2026-05-05 14:13 20.36253 -71.35001 38073 ft 419 kts 317°
2026-05-05 14:13 20.40909 -71.38733 38071 ft 415 kts 312°
2026-05-05 14:14 20.44654 -71.43286 38070 ft 407 kts 303°
2026-05-05 14:14 20.48187 -71.48018 38072 ft 407 kts 303°
2026-05-05 14:15 20.51698 -71.52709 38079 ft 408 kts 303°
2026-05-05 14:15 20.55228 -71.57444 38090 ft 408 kts 303°
2026-05-05 14:16 20.58751 -71.62182 38094 ft 407 kts 303°
2026-05-05 14:16 20.62270 -71.66927 38095 ft 407 kts 303°
2026-05-05 14:17 20.65788 -71.71664 38091 ft 407 kts 303°
2026-05-05 14:17 20.69303 -71.76398 38091 ft 407 kts 303°
2026-05-05 14:18 20.72813 -71.81132 38093 ft 407 kts 303°
2026-05-05 14:18 20.76320 -71.85873 38093 ft 406 kts 303°
2026-05-05 14:19 20.79822 -71.90614 38094 ft 406 kts 303°
2026-05-05 14:19 20.83326 -71.95351 38113 ft 406 kts 303°
2026-05-05 14:20 20.86805 -72.00058 38100 ft 406 kts 303°
2026-05-05 14:20 20.90297 -72.04789 38096 ft 405 kts 303°
2026-05-05 14:21 20.93791 -72.09521 38096 ft 405 kts 303°
2026-05-05 14:21 20.97280 -72.14258 38097 ft 405 kts 303°
2026-05-05 14:22 21.00760 -72.18994 38091 ft 405 kts 303°
2026-05-05 14:22 21.04246 -72.23734 38092 ft 405 kts 303°
2026-05-05 14:23 21.07734 -72.28478 38097 ft 406 kts 304°
2026-05-05 14:23 21.11223 -72.33232 38094 ft 406 kts 304°
2026-05-05 14:24 21.14725 -72.37987 38089 ft 407 kts 304°
2026-05-05 14:24 21.18228 -72.42753 38095 ft 407 kts 304°
2026-05-05 14:25 21.21723 -72.47535 38097 ft 408 kts 305°
2026-05-05 14:25 21.25226 -72.52322 38092 ft 409 kts 305°
2026-05-05 14:26 21.28737 -72.57123 38092 ft 409 kts 305°
2026-05-05 14:26 21.32253 -72.61934 38098 ft 410 kts 306°
2026-05-05 14:27 21.35774 -72.66753 38097 ft 410 kts 306°
2026-05-05 14:27 21.39293 -72.71573 38096 ft 410 kts 306°
2026-05-05 14:28 21.42789 -72.76369 38095 ft 411 kts 306°
2026-05-05 14:28 21.46303 -72.81205 38095 ft 411 kts 306°
2026-05-05 14:29 21.49824 -72.86044 38096 ft 411 kts 306°
2026-05-05 14:29 21.53343 -72.90883 38097 ft 411 kts 306°
2026-05-05 14:30 21.56867 -72.95730 38122 ft 411 kts 306°
2026-05-05 14:30 21.60376 -73.00569 38115 ft 410 kts 306°
2026-05-05 14:31 21.63871 -73.05392 38110 ft 408 kts 306°
2026-05-05 14:31 21.67352 -73.10202 38106 ft 407 kts 306°
2026-05-05 14:32 21.70825 -73.15006 38103 ft 406 kts 306°
2026-05-05 14:32 21.74304 -73.19803 38104 ft 406 kts 306°
2026-05-05 14:33 21.77770 -73.24604 38105 ft 406 kts 306°
2026-05-05 14:33 21.81214 -73.29383 38103 ft 406 kts 306°
2026-05-05 14:34 21.84676 -73.34186 38103 ft 406 kts 307°
2026-05-05 14:34 21.88133 -73.38980 38104 ft 405 kts 307°
2026-05-05 14:35 21.91028 -73.42989 38102 ft 404 kts 307°
2026-05-05 14:35 21.94466 -73.47776 38088 ft 402 kts 306°
2026-05-05 14:36 21.97856 -73.52495 38089 ft 400 kts 307°
2026-05-05 14:36 22.01265 -73.57245 38091 ft 401 kts 307°
2026-05-05 14:37 22.04676 -73.62001 38094 ft 401 kts 307°
2026-05-05 14:37 22.08091 -73.66768 38099 ft 402 kts 307°
2026-05-05 14:38 22.11503 -73.71536 38104 ft 401 kts 307°
2026-05-05 14:38 22.14924 -73.76308 38109 ft 401 kts 307°
2026-05-05 14:39 22.18340 -73.81077 38101 ft 401 kts 307°
2026-05-05 14:39 22.21742 -73.85846 38099 ft 401 kts 307°
2026-05-05 14:40 22.25152 -73.90622 38100 ft 401 kts 306°
2026-05-05 14:40 22.28526 -73.95369 38100 ft 402 kts 306°
2026-05-05 14:41 22.31939 -74.00151 38121 ft 402 kts 306°
2026-05-05 14:41 22.35351 -74.04939 38114 ft 402 kts 306°
2026-05-05 14:42 22.38752 -74.09733 38108 ft 402 kts 306°
2026-05-05 14:42 22.42149 -74.14527 38104 ft 402 kts 306°
2026-05-05 14:43 22.45557 -74.19316 38103 ft 402 kts 306°
2026-05-05 14:43 22.48960 -74.24112 38103 ft 402 kts 306°
2026-05-05 14:44 22.52343 -74.28885 38103 ft 402 kts 306°
2026-05-05 14:44 22.55746 -74.33690 38102 ft 402 kts 306°
2026-05-05 14:45 22.59144 -74.38496 38105 ft 402 kts 306°
2026-05-05 14:45 22.62540 -74.43295 38106 ft 401 kts 306°
2026-05-05 14:46 22.65925 -74.48097 38107 ft 401 kts 306°
2026-05-05 14:46 22.69311 -74.52892 38121 ft 401 kts 306°
2026-05-05 14:47 22.72697 -74.57693 38107 ft 401 kts 306°
2026-05-05 14:47 22.76084 -74.62505 38103 ft 402 kts 306°
2026-05-05 14:48 22.79470 -74.67328 38101 ft 402 kts 306°
2026-05-05 14:48 22.82856 -74.72147 38100 ft 402 kts 306°
2026-05-05 14:49 22.86241 -74.76973 38103 ft 402 kts 306°
2026-05-05 14:49 22.89627 -74.81794 38103 ft 402 kts 306°
2026-05-05 14:50 22.93010 -74.86624 38100 ft 402 kts 306°
2026-05-05 14:50 22.96397 -74.91452 38100 ft 402 kts 306°
2026-05-05 14:51 22.99764 -74.96255 38100 ft 402 kts 306°
2026-05-05 14:51 23.03136 -75.01094 38127 ft 402 kts 306°
2026-05-05 14:52 23.06511 -75.05946 38121 ft 403 kts 305°
2026-05-05 14:52 23.10013 -75.10698 38121 ft 403 kts 310°
2026-05-05 14:53 23.13800 -75.15184 38109 ft 403 kts 310°
2026-05-05 14:53 23.17581 -75.19668 38110 ft 402 kts 310°
2026-05-05 14:54 23.21357 -75.24150 38105 ft 402 kts 310°
2026-05-05 14:54 23.25122 -75.28633 38105 ft 401 kts 310°
2026-05-05 14:55 23.28889 -75.33121 38097 ft 401 kts 310°
2026-05-05 14:55 23.32657 -75.37611 38097 ft 401 kts 310°
2026-05-05 14:56 23.36412 -75.42103 38110 ft 401 kts 310°
2026-05-05 14:56 23.40172 -75.46588 38111 ft 400 kts 310°
2026-05-05 14:57 23.43923 -75.51057 38101 ft 400 kts 310°
2026-05-05 14:57 23.47666 -75.55545 38098 ft 400 kts 310°
2026-05-05 14:58 23.51403 -75.60040 38099 ft 400 kts 310°
2026-05-05 14:58 23.55149 -75.64531 38097 ft 401 kts 310°
2026-05-05 14:59 23.58904 -75.69026 38098 ft 401 kts 310°
2026-05-05 14:59 23.62629 -75.73492 38097 ft 401 kts 310°
2026-05-05 15:00 23.65770 -75.77261 38099 ft 401 kts 310°
2026-05-05 15:00 23.70143 -75.82523 38114 ft 400 kts 310°
2026-05-05 15:01 23.73845 -75.86993 38124 ft 399 kts 310°
2026-05-05 15:01 23.77549 -75.91460 38095 ft 396 kts 310°
2026-05-05 15:02 23.81244 -75.95922 38094 ft 396 kts 310°
2026-05-05 15:02 23.84936 -76.00392 38095 ft 396 kts 310°
2026-05-05 15:03 23.88634 -76.04866 38096 ft 396 kts 310°
2026-05-05 15:03 23.92329 -76.09337 38097 ft 396 kts 310°
2026-05-05 15:04 23.96023 -76.13806 38094 ft 396 kts 310°
2026-05-05 15:04 23.99719 -76.18279 38092 ft 396 kts 310°
2026-05-05 15:05 24.05218 -76.24947 38094 ft 395 kts 310°
2026-05-05 15:06 24.08895 -76.29409 38097 ft 395 kts 310°
2026-05-05 15:06 24.12561 -76.33880 38096 ft 395 kts 310°
2026-05-05 15:07 24.16232 -76.38348 38097 ft 395 kts 310°
2026-05-05 15:07 24.19907 -76.42810 38093 ft 395 kts 310°
2026-05-05 15:08 24.23579 -76.47289 38103 ft 395 kts 310°
2026-05-05 15:08 24.27247 -76.51771 38088 ft 395 kts 311°
2026-05-05 15:09 24.30913 -76.56249 38100 ft 394 kts 311°
2026-05-05 15:09 24.34567 -76.60719 38101 ft 393 kts 311°
2026-05-05 15:10 24.38185 -76.65150 38102 ft 392 kts 311°
2026-05-05 15:10 24.41821 -76.69606 38120 ft 392 kts 311°
2026-05-05 15:11 24.45443 -76.74045 38086 ft 389 kts 311°
2026-05-05 15:11 24.49061 -76.78476 38085 ft 389 kts 311°
2026-05-05 15:12 24.52673 -76.82915 38088 ft 390 kts 311°
2026-05-05 15:12 24.56285 -76.87362 38082 ft 390 kts 311°
2026-05-05 15:13 24.59886 -76.91798 38093 ft 388 kts 311°
2026-05-05 15:13 24.63455 -76.96193 38095 ft 387 kts 311°
2026-05-05 15:14 24.67039 -77.00606 38098 ft 387 kts 311°
2026-05-05 15:14 24.70616 -77.05021 38100 ft 386 kts 311°
2026-05-05 15:15 24.74180 -77.09437 38094 ft 386 kts 311°
2026-05-05 15:15 24.77745 -77.13841 38118 ft 385 kts 311°
2026-05-05 15:16 24.81311 -77.18246 38108 ft 384 kts 311°
2026-05-05 15:16 24.84857 -77.22635 38099 ft 383 kts 311°
2026-05-05 15:17 24.88397 -77.27024 38094 ft 382 kts 311°
2026-05-05 15:17 24.91894 -77.31372 38099 ft 381 kts 311°
2026-05-05 15:18 24.95404 -77.35737 38099 ft 380 kts 311°
2026-05-05 15:18 24.98910 -77.40093 38098 ft 379 kts 311°
2026-05-05 15:19 25.02281 -77.44548 38099 ft 379 kts 303°
2026-05-05 15:19 25.04507 -77.49841 38094 ft 382 kts 295°
2026-05-05 15:20 25.06531 -77.55252 38089 ft 382 kts 296°
2026-05-05 15:20 25.08560 -77.60663 38081 ft 381 kts 296°
2026-05-05 15:21 25.10562 -77.66030 38085 ft 381 kts 296°
2026-05-05 15:21 25.12580 -77.71430 38088 ft 380 kts 296°
2026-05-05 15:22 25.14585 -77.76805 38090 ft 378 kts 296°
2026-05-05 15:22 25.16580 -77.82167 38080 ft 378 kts 296°
2026-05-05 15:23 25.18575 -77.87536 38079 ft 378 kts 296°
2026-05-05 15:23 25.20573 -77.92899 38078 ft 378 kts 296°
2026-05-05 15:24 25.22229 -77.97355 38058 ft 377 kts 296°
2026-05-05 15:24 25.24220 -78.02715 38048 ft 377 kts 296°
2026-05-05 15:24 25.25232 -78.05435 37782 ft 388 kts 296°
2026-05-05 15:25 25.26266 -78.08219 37517 ft 395 kts 296°
2026-05-05 15:25 25.27309 -78.11042 37253 ft 398 kts 296°
2026-05-05 15:25 25.28353 -78.13879 36996 ft 400 kts 295°
2026-05-05 15:25 25.29397 -78.16717 36486 ft 398 kts 295°
2026-05-05 15:26 25.30440 -78.19544 35804 ft 398 kts 296°
2026-05-05 15:26 25.31531 -78.22370 35057 ft 401 kts 296°
2026-05-05 15:26 25.32670 -78.25204 34264 ft 405 kts 296°
2026-05-05 15:26 25.33838 -78.28061 33292 ft 411 kts 296°
2026-05-05 15:27 25.35018 -78.30950 32488 ft 413 kts 295°
2026-05-05 15:27 25.36194 -78.33852 31798 ft 413 kts 295°
2026-05-05 15:27 25.37354 -78.36743 31217 ft 410 kts 294°
2026-05-05 15:27 25.38502 -78.39617 30633 ft 407 kts 294°
2026-05-05 15:28 25.39640 -78.42473 30034 ft 405 kts 293°
2026-05-05 15:28 25.40774 -78.45316 29399 ft 402 kts 293°
2026-05-05 15:28 25.41887 -78.48127 28929 ft 396 kts 293°
2026-05-05 15:28 25.42969 -78.50921 28301 ft 393 kts 292°
2026-05-05 15:29 25.44028 -78.53692 27699 ft 390 kts 292°
2026-05-05 15:29 25.45058 -78.56404 27185 ft 386 kts 292°
2026-05-05 15:29 25.46095 -78.59135 26674 ft 382 kts 292°
2026-05-05 15:29 25.47115 -78.61814 26405 ft 372 kts 292°
2026-05-05 15:30 25.48115 -78.64430 26016 ft 366 kts 292°
2026-05-05 15:30 25.49104 -78.67010 25572 ft 363 kts 292°
2026-05-05 15:30 25.50086 -78.69571 25116 ft 360 kts 292°
2026-05-05 15:30 25.51059 -78.72113 24687 ft 358 kts 293°
2026-05-05 15:31 25.52025 -78.74639 24301 ft 355 kts 293°
2026-05-05 15:31 25.52982 -78.77145 23905 ft 352 kts 293°
2026-05-05 15:31 25.53934 -78.79636 23462 ft 350 kts 293°
2026-05-05 15:31 25.54879 -78.82108 22960 ft 347 kts 293°
2026-05-05 15:32 25.55815 -78.84562 22455 ft 345 kts 292°
2026-05-05 15:32 25.56744 -78.87002 21972 ft 343 kts 292°
2026-05-05 15:32 25.57658 -78.89403 21484 ft 341 kts 292°
2026-05-05 15:32 25.58577 -78.91814 21003 ft 339 kts 292°
2026-05-05 15:33 25.59501 -78.94240 20514 ft 337 kts 292°
2026-05-05 15:33 25.60396 -78.96595 20039 ft 335 kts 292°
2026-05-05 15:33 25.61310 -78.98999 19565 ft 333 kts 292°
2026-05-05 15:33 25.62196 -79.01329 19106 ft 332 kts 292°
2026-05-05 15:34 25.63091 -79.03678 18651 ft 330 kts 292°
2026-05-05 15:34 25.63977 -79.06017 18179 ft 329 kts 292°
2026-05-05 15:34 25.64856 -79.08352 17662 ft 327 kts 292°
2026-05-05 15:34 25.65728 -79.10673 17148 ft 326 kts 292°
2026-05-05 15:35 25.66594 -79.12988 16664 ft 324 kts 292°
2026-05-05 15:35 25.67454 -79.15291 16180 ft 323 kts 291°
2026-05-05 15:35 25.68310 -79.17584 15692 ft 321 kts 291°
2026-05-05 15:35 25.69165 -79.19871 15241 ft 320 kts 291°
2026-05-05 15:36 25.70017 -79.22143 14789 ft 319 kts 291°
2026-05-05 15:36 25.70865 -79.24410 14350 ft 318 kts 291°
2026-05-05 15:36 25.71712 -79.26668 13935 ft 317 kts 291°
2026-05-05 15:36 25.72555 -79.28917 13448 ft 315 kts 291°
2026-05-05 15:37 25.73392 -79.31159 12987 ft 312 kts 290°
2026-05-05 15:37 25.74206 -79.33365 12247 ft 308 kts 290°
2026-05-05 15:37 25.75008 -79.35555 11496 ft 305 kts 290°
2026-05-05 15:37 25.75803 -79.37724 10783 ft 302 kts 290°
2026-05-05 15:38 25.76587 -79.39861 10270 ft 293 kts 290°
2026-05-05 15:38 25.77339 -79.41907 10140 ft 281 kts 289°
2026-05-05 15:38 25.78068 -79.43891 9990 ft 274 kts 290°
2026-05-05 15:38 25.78785 -79.45849 9804 ft 276 kts 290°
2026-05-05 15:39 25.79508 -79.47829 9368 ft 278 kts 290°
2026-05-05 15:39 25.80233 -79.49818 8974 ft 278 kts 290°
2026-05-05 15:39 25.80958 -79.51801 8600 ft 278 kts 290°
2026-05-05 15:39 25.81681 -79.53780 8333 ft 274 kts 290°
2026-05-05 15:40 25.82390 -79.55729 8051 ft 271 kts 290°
2026-05-05 15:40 25.83093 -79.57665 7721 ft 270 kts 291°
2026-05-05 15:40 25.83796 -79.59596 7388 ft 270 kts 291°
2026-05-05 15:40 25.84506 -79.61527 7057 ft 270 kts 291°
2026-05-05 15:41 25.85228 -79.63445 6734 ft 269 kts 292°
2026-05-05 15:41 25.85955 -79.65332 6412 ft 269 kts 293°
2026-05-05 15:41 25.86742 -79.67213 6092 ft 268 kts 295°
2026-05-05 15:41 25.87554 -79.69075 6014 ft 269 kts 295°
2026-05-05 15:42 25.88374 -79.70941 6022 ft 269 kts 295°
2026-05-05 15:42 25.89196 -79.72815 6025 ft 270 kts 295°
2026-05-05 15:42 25.90014 -79.74693 6032 ft 271 kts 295°
2026-05-05 15:42 25.90828 -79.76581 6031 ft 270 kts 294°
2026-05-05 15:43 25.91634 -79.78462 6028 ft 269 kts 294°
2026-05-05 15:43 25.92436 -79.80340 6029 ft 268 kts 295°
2026-05-05 15:43 25.93234 -79.82211 6028 ft 268 kts 295°
2026-05-05 15:43 25.94031 -79.84083 6029 ft 269 kts 295°
2026-05-05 15:44 25.94833 -79.85967 6029 ft 269 kts 295°
2026-05-05 15:44 25.95632 -79.87843 6026 ft 268 kts 295°
2026-05-05 15:44 25.96431 -79.89726 6024 ft 271 kts 295°
2026-05-05 15:44 25.97234 -79.91618 6026 ft 271 kts 295°
2026-05-05 15:45 25.98037 -79.93511 6023 ft 269 kts 295°
2026-05-05 15:45 25.98923 -79.95342 6022 ft 269 kts 304°
2026-05-05 15:45 26.00142 -79.96932 6023 ft 271 kts 311°
2026-05-05 15:45 26.01408 -79.98485 6020 ft 272 kts 311°
2026-05-05 15:46 26.02674 -80.00044 6011 ft 270 kts 311°
2026-05-05 15:46 26.03917 -80.01578 6011 ft 271 kts 311°
2026-05-05 15:46 26.05175 -80.03133 6010 ft 269 kts 310°
2026-05-05 15:46 26.06445 -80.04704 6011 ft 271 kts 311°
2026-05-05 15:47 26.07703 -80.06262 6012 ft 271 kts 311°
2026-05-05 15:47 26.08538 -80.07295 6011 ft 271 kts 311°
2026-05-05 15:47 26.10208 -80.09360 6005 ft 271 kts 311°
2026-05-05 15:47 26.11468 -80.10918 6008 ft 270 kts 311°
2026-05-05 15:48 26.12730 -80.12476 6008 ft 270 kts 311°
2026-05-05 15:48 26.13944 -80.14066 6018 ft 270 kts 303°
2026-05-05 15:48 26.14760 -80.15930 6018 ft 269 kts 286°
2026-05-05 15:48 26.15051 -80.17990 5901 ft 269 kts 271°
2026-05-05 15:49 26.15046 -80.20070 5780 ft 268 kts 271°
2026-05-05 15:49 26.15045 -80.22152 5666 ft 269 kts 271°
2026-05-05 15:49 26.15051 -80.24239 5560 ft 270 kts 271°
2026-05-05 15:49 26.15061 -80.26325 5449 ft 269 kts 271°
2026-05-05 15:50 26.15072 -80.28411 5342 ft 270 kts 271°
2026-05-05 15:50 26.15080 -80.30470 5220 ft 261 kts 271°
2026-05-05 15:50 26.15087 -80.32454 5113 ft 252 kts 271°
2026-05-05 15:50 26.15095 -80.34365 5015 ft 242 kts 271°
2026-05-05 15:51 26.15078 -80.36192 4916 ft 232 kts 268°
2026-05-05 15:51 26.14645 -80.37870 4798 ft 225 kts 237°
2026-05-05 15:51 26.13496 -80.38971 4646 ft 220 kts 203°
2026-05-05 15:51 26.12004 -80.39213 4417 ft 217 kts 177°
2026-05-05 15:52 26.10524 -80.39059 4213 ft 212 kts 173°
2026-05-05 15:52 26.09175 -80.38554 3991 ft 203 kts 144°
2026-05-05 15:52 26.08209 -80.37412 3595 ft 209 kts 118°
2026-05-05 15:52 26.07793 -80.35884 3297 ft 206 kts 92°
2026-05-05 15:53 26.07778 -80.34301 3024 ft 203 kts 89°
2026-05-05 15:53 26.07772 -80.32762 2767 ft 195 kts 88°
2026-05-05 15:53 26.07766 -80.31305 2527 ft 190 kts 89°
2026-05-05 15:53 26.07760 -80.29851 2274 ft 179 kts 89°
2026-05-05 15:54 26.07754 -80.28532 2075 ft 169 kts 88°
2026-05-05 15:54 26.07748 -80.27252 1863 ft 159 kts 88°
2026-05-05 15:54 26.07742 -80.26048 1646 ft 154 kts 88°
2026-05-05 15:54 26.07736 -80.24880 1447 ft 151 kts 88°
2026-05-05 15:55 26.07731 -80.23734 1237 ft 143 kts 89°
2026-05-05 15:55 26.07725 -80.22646 1054 ft 138 kts 87°
2026-05-05 15:55 26.07720 -80.21600 892 ft 135 kts 88°
2026-05-05 15:55 26.07715 -80.20552 752 ft 134 kts 87°
2026-05-05 15:56 26.07709 -80.19515 573 ft 133 kts 90°
2026-05-05 15:56 26.07705 -80.18475 376 ft 135 kts 91°
2026-05-05 15:56 26.07696 -80.17438 219 ft 135 kts 90°
2026-05-05 15:56 26.07691 -80.16416 56 ft 133 kts 90°
2026-05-05 15:57 26.07686 -80.15457 17 ft 109 kts 89°
2026-05-05 15:57 26.07683 -80.14808 19 ft 59 kts 90°
2026-05-05 15:57 26.07680 -80.14559 19 ft 18 kts 91°
2026-05-05 15:57 26.07655 -80.14461 21 ft 9 kts 116°
2026-05-05 15:58 26.07618 -80.14397 19 ft 13 kts 150°
2026-05-05 15:58 26.07560 -80.14439 18 ft 13 kts 263°
2026-05-05 15:58 26.07559 -80.14545 17 ft 15 kts 270°
2026-05-05 15:58 26.07559 -80.14669 17 ft 17 kts 270°
2026-05-05 15:59 26.07560 -80.14794 17 ft 12 kts 264°
2026-05-05 15:59 26.07509 -80.14873 16 ft 14 kts 225°
2026-05-05 15:59 26.07433 -80.14958 16 ft 17 kts 225°
2026-05-05 15:59 26.07345 -80.15055 16 ft 19 kts 224°
2026-05-05 16:00 26.07274 -80.15124 16 ft 12 kts 200°
2026-05-05 16:00 26.07195 -80.15107 16 ft 13 kts 135°
2026-05-05 16:00 26.07124 -80.15030 16 ft 16 kts 135°
2026-05-05 16:00 26.07040 -80.14938 16 ft 18 kts 135°
2026-05-05 16:01 26.06958 -80.14850 16 ft 13 kts 135°
2026-05-05 16:01 26.06937 -80.14777 16 ft 10 kts 62°
2026-05-05 16:01 26.06952 -80.14720 16 ft 8 kts 121°
2026-05-05 16:01 26.06904 -80.14671 16 ft 11 kts 140°
2026-05-05 16:02 26.06840 -80.14614 16 ft 11 kts 135°
2026-05-05 16:02 26.06820 -80.14557 16 ft 0 kts 91°
2026-05-05 16:02 26.06820 -80.14554 16 ft 2 kts 91°
2026-05-05 16:02 26.06824 -80.14521 16 ft 6 kts 57°
2026-05-05 16:03 26.06868 -80.14516 16 ft 6 kts 360°
2026-05-05 16:03 26.06884 -80.14516 16 ft 0 kts